{"data":{"norad_id":60604,"epoch":"2026-09-21T19:48:43.334784Z","epoch_age_seconds":73660,"freshness":"FRESH","line1":"1 60604U 24150X   26264.82550156  .00000260  00000+0  18826-4 0  9996","line2":"2 60604  53.1605 117.2053 0001347 102.1475 257.9679 15.34389387118053","mean_motion":15.34389387,"eccentricity":0.0001347,"inclination_deg":53.1605,"raan_deg":117.2053,"arg_perigee_deg":102.1475,"mean_anomaly_deg":257.9679,"bstar":1.8826e-5,"rev_number":11805,"period_min":93.848407203562,"perigee_km":461.81331903215,"apogee_km":463.65624989088,"semimajor_km":6840.8717844615,"source":"CELESTRAK","updated_at":"2026-09-22T09:00:49.276320Z"}}